BAW58L FACT-EGLL

Flight info

Callsign BAW58L
Flight time N/A
Altitude 33000
Route KODES UQ43 DUSLA UN188 APGAS/N0498F340 UN188 UTVUM/N0502F330 UN188 XALVI/N0503F340 UN190 VMO/N0504F350 UN190 VNA/N0500F360 UR526 LIKAD DCT RASOP UG861 ARASI DCT KOKAM UA604 NEMVU/N0492F380 UA604 AS UR978 BOD/N0484F390 UG362 BARKA/N0486F380 UA605 CSO UN854 SALMA/N0485F400 DCT BAVON DCT OLNUL DCT PADKO DCT MOPEM DCT CACHI DCT AVLON DCT OKRIX DCT BRY/N0491F360 DCT CLM DCT KOPOR DCT ABNUR DCT DIMAL DCT ALESO
Aircraft A35K/H-SDE2E3GHIJ3J4J5LM1ORWXY/LB1D1

Departure

Time 2026-05-07 16:22
Airport Cape Town International Airport (FACT)

Arrival

Time N/A
Airport London Heathrow Airport (EGLL)
Time Latitude Longitude Altitude Speed Heading
2026-05-07 15:58 -33.96708 18.59744 160 ft 0 kts 255°
2026-05-07 16:12 -33.96705 18.59756 160 ft 4 kts 255°
2026-05-07 16:12 -33.96698 18.59787 160 ft 3 kts 255°
2026-05-07 16:12 -33.96694 18.59812 160 ft 4 kts 280°
2026-05-07 16:12 -33.96706 18.59836 160 ft 4 kts 337°
2026-05-07 16:13 -33.96730 18.59845 160 ft 4 kts 345°
2026-05-07 16:13 -33.96748 18.59851 160 ft 0 kts 345°
2026-05-07 16:16 -33.96745 18.59850 160 ft 2 kts 345°
2026-05-07 16:16 -33.96718 18.59841 160 ft 6 kts 345°
2026-05-07 16:17 -33.96666 18.59824 160 ft 9 kts 345°
2026-05-07 16:17 -33.96597 18.59805 160 ft 12 kts 347°
2026-05-07 16:17 -33.96509 18.59780 160 ft 14 kts 349°
2026-05-07 16:17 -33.96403 18.59756 160 ft 17 kts 350°
2026-05-07 16:18 -33.96298 18.59733 160 ft 13 kts 351°
2026-05-07 16:18 -33.96220 18.59735 160 ft 12 kts 25°
2026-05-07 16:18 -33.96157 18.59810 158 ft 12 kts 46°
2026-05-07 16:18 -33.96102 18.59878 159 ft 7 kts 45°
2026-05-07 16:19 -33.96096 18.59885 159 ft 0 kts 45°
2026-05-07 16:19 -33.96088 18.59895 160 ft 4 kts 45°
2026-05-07 16:20 -33.96062 18.59928 160 ft 7 kts 46°
2026-05-07 16:20 -33.96029 18.59981 159 ft 8 kts 70°
2026-05-07 16:20 -33.96059 18.60032 160 ft 8 kts 165°
2026-05-07 16:20 -33.96072 18.60036 160 ft 1 kts 165°
2026-05-07 16:21 -33.96227 18.60085 159 ft 56 kts 165°
2026-05-07 16:21 -33.96822 18.60272 163 ft 119 kts 165°
2026-05-07 16:21 -33.97808 18.60584 160 ft 172 kts 165°
2026-05-07 16:21 -33.99036 18.61008 646 ft 180 kts 164°
2026-05-07 16:22 -34.00216 18.61397 1401 ft 174 kts 166°
2026-05-07 16:22 -34.01391 18.61776 1890 ft 176 kts 166°
2026-05-07 16:22 -34.02580 18.62160 2352 ft 178 kts 166°
2026-05-07 16:22 -34.03824 18.62561 2632 ft 193 kts 166°
2026-05-07 16:23 -34.05182 18.62997 2876 ft 210 kts 166°
2026-05-07 16:23 -34.06640 18.63465 3106 ft 230 kts 166°
2026-05-07 16:23 -34.08251 18.63980 3369 ft 248 kts 166°
2026-05-07 16:23 -34.09961 18.64527 3825 ft 258 kts 166°
2026-05-07 16:24 -34.11686 18.65182 4360 ft 263 kts 156°
2026-05-07 16:24 -34.13206 18.66420 4954 ft 267 kts 134°
2026-05-07 16:24 -34.14151 18.68340 5544 ft 270 kts 105°
2026-05-07 16:24 -34.14171 18.70598 6139 ft 273 kts 73°
2026-05-07 16:25 -34.13214 18.72553 6729 ft 275 kts 42°
2026-05-07 16:25 -34.11556 18.73670 7379 ft 276 kts 14°
2026-05-07 16:25 -34.09664 18.74077 8033 ft 278 kts
2026-05-07 16:25 -34.07723 18.74159 8711 ft 281 kts 359°
2026-05-07 16:26 -34.05762 18.74101 9388 ft 283 kts 357°
2026-05-07 16:26 -34.03780 18.74013 10040 ft 286 kts 358°
2026-05-07 16:26 -34.01748 18.73946 10469 ft 300 kts 358°
2026-05-07 16:26 -34.00341 18.73923 10652 ft 311 kts 359°
2026-05-07 16:27 -33.97342 18.73930 11081 ft 333 kts
2026-05-07 16:27 -33.94967 18.73969 11380 ft 348 kts
2026-05-07 16:27 -33.92518 18.74023 11671 ft 363 kts
2026-05-07 16:27 -33.89946 18.74084 11963 ft 377 kts
2026-05-07 16:28 -33.87284 18.74147 12348 ft 386 kts
2026-05-07 16:28 -33.84574 18.74208 12884 ft 391 kts
2026-05-07 16:28 -33.81840 18.74267 13442 ft 395 kts
2026-05-07 16:28 -33.79068 18.74324 14023 ft 399 kts